Погода в Кали

Колумбия     3°27′30″N   76°31′42″W
темп.,
°C
ветер,
м/с
пор.,
м/с
влажн.,
%
обл.,
%
осадки,
мм/ч
давл.,
гПа
погр.,
м
23 января, сб
сб2301:00+18с1192100 8.5 101473
04:00+17всв0193100 0.9 1012111
07:00+18всв119399 2.9 101471
10:00+22в1177100 0.3 1014469
13:00+27ссв1155100 0.9 10111108
16:00+26ссз2261100 1.4 10081013
19:00+20зсз128658 7.1 1011103
22:00+19зсз1186100 2.0 101361
24 января, вс
вс2401:00+18юз019099 4.4 101267
04:00+18в0191100 1.1 1011116
07:00+18юв119396 1.3 1013129
10:00+21всв117999 0.1 1012431
13:00+28с125359 1.1 10091188
16:00+25сз236281 1.9 1007917
19:00+20сз238650 5.3 1010124
22:00+19зсз1186100 3.4 101289
25 января, пн
пн2501:00+18сз018985 8.6 101140
04:00+18вюв119235 2.3 101079
07:00+18в1194100 4.7 1013107
10:00+21в1180100 0.3 1012465
13:00+26св1260100 0.9 1009962
16:00+24сз237294 3.9 1007531
19:00+20зсз228797 8.7 1010131
22:00+19ююв1190100 5.4 101291
26 января, вт
вт2601:00+18вюв1194100 7.7 101185
04:00+18вюв1192100 2.8 101178
07:00+18в119390 3.4 1013112
10:00+22всв1176100 1.5 1013493
13:00+25ссз226896 3.9 1011774
16:00+24сз2373100 3.5 1009584
19:00+20сз2286100 6.7 1011144
22:00+18зсз118879 2.1 101374
27 января, ср
ср2701:00+18з019041 0.8 101292
04:00+17ссв009155 0.0 101296
07:00+17вюв019381 0.0 101394
10:00+22в1179100 0.0 1013446
13:00+28с115289 0.2 10101153
16:00+26ссз236039 0.2 10081049
19:00+20сз248226 1.4 1011220
22:00+19зсз118539 0.4 1013113